owner,sensor,date,latitude,longitude,vertical_datum,sea_water_temperature,qcFlag
Chevron,ioos:station:wmo:42876:1,2019-04-01T00:04:00Z,26.2090,-91.4456,10.7,22.9,11111222
Chevron,ioos:station:wmo:42876:1,2019-04-01T00:14:00Z,26.2090,-91.4456,10.5,22.9,11111222
Chevron,ioos:station:wmo:42876:1,2019-04-01T00:24:00Z,26.2090,-91.4456,10.5,22.9,11111222
Chevron,ioos:station:wmo:42876:1,2019-04-01T00:34:00Z,26.2090,-91.4456,10.3,22.9,11111222
Chevron,ioos:station:wmo:42876:1,2019-04-01T00:44:00Z,26.2090,-91.4456,10.8,22.9,11111222
Chevron,ioos:station:wmo:42876:1,2019-04-01T00:55:00Z,26.2090,-91.4456,10.5,22.9,11111222
Chevron,ioos:station:wmo:42876:1,2019-04-01T01:05:00Z,26.2090,-91.4456,10.6,22.9,11111222
Chevron,ioos:station:wmo:42876:1,2019-04-01T01:15:00Z,26.2090,-91.4456,10.3,22.9,11111222
Chevron,ioos:station:wmo:42876:1,2019-04-01T01:25:00Z,26.2090,-91.4456,10.4,22.9,11111222
Chevron,ioos:station:wmo:42876:1,2019-04-01T01:35:00Z,26.2090,-91.4456,10.5,22.9,11111222
Chevron,ioos:station:wmo:42876:1,2019-04-01T01:45:00Z,26.2090,-91.4456,10.4,22.9,11111222
Chevron,ioos:station:wmo:42876:1,2019-04-01T01:55:00Z,26.2090,-91.4456,10.6,22.9,11111222
Chevron,ioos:station:wmo:42876:1,2019-04-01T02:05:00Z,26.2090,-91.4456,10.5,22.9,11111222
Chevron,ioos:station:wmo:42876:1,2019-04-01T02:15:00Z,26.2090,-91.4456,10.3,22.9,11111222
Chevron,ioos:station:wmo:42876:1,2019-04-01T02:25:00Z,26.2090,-91.4456,10.5,22.9,11111222
Chevron,ioos:station:wmo:42876:1,2019-04-01T02:35:00Z,26.2090,-91.4456,10.3,22.8,11111222
Chevron,ioos:station:wmo:42876:1,2019-04-01T02:45:00Z,26.2090,-91.4456,10.4,22.8,11111222
Chevron,ioos:station:wmo:42876:1,2019-04-01T02:55:00Z,26.2090,-91.4456,10.7,22.8,11111222
Chevron,ioos:station:wmo:42876:1,2019-04-01T03:05:00Z,26.2090,-91.4456,10.1,22.8,11111222
Chevron,ioos:station:wmo:42876:1,2019-04-01T03:15:00Z,26.2090,-91.4456,10.8,22.8,11111222
Chevron,ioos:station:wmo:42876:1,2019-04-01T03:25:00Z,26.2090,-91.4456,10.7,22.8,11111222
Chevron,ioos:station:wmo:42876:1,2019-04-01T03:35:00Z,26.2090,-91.4456,10.4,22.8,11111222
Chevron,ioos:station:wmo:42876:1,2019-04-01T03:45:00Z,26.2090,-91.4456,10.6,22.8,11111222
Chevron,ioos:station:wmo:42876:1,2019-04-01T03:55:00Z,26.2090,-91.4456,10.5,22.8,11111222
Chevron,ioos:station:wmo:42876:1,2019-04-01T04:05:00Z,26.2090,-91.4456,10.6,22.8,11111222
Chevron,ioos:station:wmo:42876:1,2019-04-01T04:15:00Z,26.2090,-91.4456,10.6,22.8,11111222
Chevron,ioos:station:wmo:42876:1,2019-04-01T04:25:00Z,26.2090,-91.4456,10.6,22.8,11111222
Chevron,ioos:station:wmo:42876:1,2019-04-01T04:35:00Z,26.2090,-91.4456,10.6,22.8,11111222
Chevron,ioos:station:wmo:42876:1,2019-04-01T04:45:00Z,26.2090,-91.4456,10.5,22.8,11111222
Chevron,ioos:station:wmo:42876:1,2019-04-01T04:55:00Z,26.2090,-91.4456,10.6,22.7,11111222
Chevron,ioos:station:wmo:42876:1,2019-04-01T05:05:00Z,26.2090,-91.4456,10.6,22.7,11111222
Chevron,ioos:station:wmo:42876:1,2019-04-01T05:15:00Z,26.2090,-91.4456,10.5,22.7,11111222
Chevron,ioos:station:wmo:42876:1,2019-04-01T05:25:00Z,26.2090,-91.4456,10.7,22.7,11111222
Chevron,ioos:station:wmo:42876:1,2019-04-01T05:35:00Z,26.2090,-91.4456,10.3,22.7,11111222
Chevron,ioos:station:wmo:42876:1,2019-04-01T05:45:00Z,26.2090,-91.4456,10.5,22.7,11111222
Chevron,ioos:station:wmo:42876:1,2019-04-01T05:55:00Z,26.2090,-91.4456,10.7,22.7,11111222
Chevron,ioos:station:wmo:42876:1,2019-04-01T06:05:00Z,26.2090,-91.4456,10.6,22.7,11111222
Chevron,ioos:station:wmo:42876:1,2019-04-01T06:15:00Z,26.2090,-91.4456,10.3,22.7,11111222
Chevron,ioos:station:wmo:42876:1,2019-04-01T06:25:00Z,26.2090,-91.4456,10.6,22.7,11111222
Chevron,ioos:station:wmo:42876:1,2019-04-01T06:35:00Z,26.2090,-91.4456,10.4,22.7,11111222
Chevron,ioos:station:wmo:42876:1,2019-04-01T06:45:00Z,26.2090,-91.4456,10.6,22.7,11111222
Chevron,ioos:station:wmo:42876:1,2019-04-01T06:55:00Z,26.2090,-91.4456,10.4,22.6,11111222
Chevron,ioos:station:wmo:42876:1,2019-04-01T07:05:00Z,26.2090,-91.4456,10.5,22.6,11111222
Chevron,ioos:station:wmo:42876:1,2019-04-01T07:15:00Z,26.2090,-91.4456,10.6,22.6,11111222
Chevron,ioos:station:wmo:42876:1,2019-04-01T07:25:00Z,26.2090,-91.4456,10.8,22.6,11111222
Chevron,ioos:station:wmo:42876:1,2019-04-01T07:35:00Z,26.2090,-91.4456,10.7,22.6,11111222
Chevron,ioos:station:wmo:42876:1,2019-04-01T07:45:00Z,26.2090,-91.4456,10.5,22.6,11111222
Chevron,ioos:station:wmo:42876:1,2019-04-01T07:55:00Z,26.2090,-91.4456,10.5,22.6,11111222
Chevron,ioos:station:wmo:42876:1,2019-04-01T08:05:00Z,26.2090,-91.4456,10.5,22.5,11111222
Chevron,ioos:station:wmo:42876:1,2019-04-01T08:15:00Z,26.2090,-91.4456,10.2,22.5,11111222
Chevron,ioos:station:wmo:42876:1,2019-04-01T08:25:00Z,26.2090,-91.4456,10.3,22.5,11111222
Chevron,ioos:station:wmo:42876:1,2019-04-01T08:35:00Z,26.2090,-91.4456,10.3,22.6,11111222
Chevron,ioos:station:wmo:42876:1,2019-04-01T08:45:00Z,26.2090,-91.4456,10.4,22.6,11111222
Chevron,ioos:station:wmo:42876:1,2019-04-01T08:55:00Z,26.2090,-91.4456,10.6,22.7,11111222
Chevron,ioos:station:wmo:42876:1,2019-04-01T09:05:00Z,26.2090,-91.4456,10.5,22.7,11111222
Chevron,ioos:station:wmo:42876:1,2019-04-01T09:15:00Z,26.2090,-91.4456,10.5,22.7,11111222
Chevron,ioos:station:wmo:42876:1,2019-04-01T09:25:00Z,26.2090,-91.4456,10.7,22.7,11111222
Chevron,ioos:station:wmo:42876:1,2019-04-01T09:35:00Z,26.2090,-91.4456,10.2,22.7,11111222
Chevron,ioos:station:wmo:42876:1,2019-04-01T09:45:00Z,26.2090,-91.4456,10.5,22.7,11111222
Chevron,ioos:station:wmo:42876:1,2019-04-01T09:55:00Z,26.2090,-91.4456,10.5,22.7,11111222
Chevron,ioos:station:wmo:42876:1,2019-04-01T10:05:00Z,26.2090,-91.4456,10.4,22.7,11111222
Chevron,ioos:station:wmo:42876:1,2019-04-01T10:15:00Z,26.2090,-91.4456,10.5,22.7,11111222
Chevron,ioos:station:wmo:42876:1,2019-04-01T10:25:00Z,26.2090,-91.4456,10.6,22.7,11111222
Chevron,ioos:station:wmo:42876:1,2019-04-01T10:35:00Z,26.2090,-91.4456,10.4,22.7,11111222
Chevron,ioos:station:wmo:42876:1,2019-04-01T10:45:00Z,26.2090,-91.4456,10.6,22.8,11111222
Chevron,ioos:station:wmo:42876:1,2019-04-01T10:55:00Z,26.2090,-91.4456,10.6,22.8,11111222
Chevron,ioos:station:wmo:42876:1,2019-04-01T11:05:00Z,26.2090,-91.4456,10.7,22.8,11111222
Chevron,ioos:station:wmo:42876:1,2019-04-01T11:15:00Z,26.2090,-91.4456,10.3,22.7,11111222
Chevron,ioos:station:wmo:42876:1,2019-04-01T11:25:00Z,26.2090,-91.4456,10.5,22.7,11111222
Chevron,ioos:station:wmo:42876:1,2019-04-01T11:35:00Z,26.2090,-91.4456,10.5,22.7,11111222
Chevron,ioos:station:wmo:42876:1,2019-04-01T11:45:00Z,26.2090,-91.4456,10.4,22.7,11111222
Chevron,ioos:station:wmo:42876:1,2019-04-01T11:55:00Z,26.2090,-91.4456,10.6,22.7,11111222
Chevron,ioos:station:wmo:42876:1,2019-04-01T12:05:00Z,26.2090,-91.4456,10.3,22.8,11111222
Chevron,ioos:station:wmo:42876:1,2019-04-01T12:15:00Z,26.2090,-91.4456,10.4,22.8,11111222
Chevron,ioos:station:wmo:42876:1,2019-04-01T12:25:00Z,26.2090,-91.4456,10.4,22.8,11111222
Chevron,ioos:station:wmo:42876:1,2019-04-01T12:35:00Z,26.2090,-91.4456,10.3,22.8,11111222
Chevron,ioos:station:wmo:42876:1,2019-04-01T12:45:00Z,26.2090,-91.4456,10.5,22.8,11111222
Chevron,ioos:station:wmo:42876:1,2019-04-01T12:55:00Z,26.2090,-91.4456,10.5,22.8,11111222
Chevron,ioos:station:wmo:42876:1,2019-04-01T13:05:00Z,26.2090,-91.4456,10.6,22.8,11111222
Chevron,ioos:station:wmo:42876:1,2019-04-01T13:15:00Z,26.2090,-91.4456,10.6,22.8,11111222
Chevron,ioos:station:wmo:42876:1,2019-04-01T13:25:00Z,26.2090,-91.4456,10.2,22.8,11111222
Chevron,ioos:station:wmo:42876:1,2019-04-01T13:35:00Z,26.2090,-91.4456,10.4,22.8,11111222
Chevron,ioos:station:wmo:42876:1,2019-04-01T13:45:00Z,26.2090,-91.4456,10.4,22.8,11111222
Chevron,ioos:station:wmo:42876:1,2019-04-01T13:55:00Z,26.2090,-91.4456,10.4,22.8,11111222
Chevron,ioos:station:wmo:42876:1,2019-04-01T14:05:00Z,26.2090,-91.4456,10.4,22.8,11111222
Chevron,ioos:station:wmo:42876:1,2019-04-01T14:15:00Z,26.2090,-91.4456,10.3,22.8,11111222
Chevron,ioos:station:wmo:42876:1,2019-04-01T14:25:00Z,26.2090,-91.4456,10.6,22.8,11111222
Chevron,ioos:station:wmo:42876:1,2019-04-01T14:35:00Z,26.2090,-91.4456,10.3,22.8,11111222
Chevron,ioos:station:wmo:42876:1,2019-04-01T14:45:00Z,26.2090,-91.4456,10.5,22.8,11111222
Chevron,ioos:station:wmo:42876:1,2019-04-01T14:55:00Z,26.2090,-91.4456,10.7,22.8,11111222
Chevron,ioos:station:wmo:42876:1,2019-04-01T15:05:00Z,26.2090,-91.4456,10.5,22.8,11111222
Chevron,ioos:station:wmo:42876:1,2019-04-01T15:15:00Z,26.2090,-91.4456,10.5,22.8,11111222
Chevron,ioos:station:wmo:42876:1,2019-04-01T15:25:00Z,26.2090,-91.4456,10.3,22.8,11111222
Chevron,ioos:station:wmo:42876:1,2019-04-01T15:35:00Z,26.2090,-91.4456,10.4,22.8,11111222
Chevron,ioos:station:wmo:42876:1,2019-04-01T15:45:00Z,26.2090,-91.4456,10.4,22.7,11111222
Chevron,ioos:station:wmo:42876:1,2019-04-01T15:55:00Z,26.2090,-91.4456,10.5,22.7,11111222
Chevron,ioos:station:wmo:42876:1,2019-04-01T16:05:00Z,26.2090,-91.4456,10.5,22.7,11111222
Chevron,ioos:station:wmo:42876:1,2019-04-01T16:15:00Z,26.2090,-91.4456,10.2,22.7,11111222
Chevron,ioos:station:wmo:42876:1,2019-04-01T16:25:00Z,26.2090,-91.4456,10.1,22.7,11111222
Chevron,ioos:station:wmo:42876:1,2019-04-01T16:35:00Z,26.2090,-91.4456,10.4,22.7,11111222
Chevron,ioos:station:wmo:42876:1,2019-04-01T16:45:00Z,26.2090,-91.4456,10.5,22.7,11111222
Chevron,ioos:station:wmo:42876:1,2019-04-01T16:55:00Z,26.2090,-91.4456,10.4,22.7,11111222
Chevron,ioos:station:wmo:42876:1,2019-04-01T17:05:00Z,26.2090,-91.4456,10.1,22.7,11111222
Chevron,ioos:station:wmo:42876:1,2019-04-01T17:15:00Z,26.2090,-91.4456,10.3,22.7,11111222
Chevron,ioos:station:wmo:42876:1,2019-04-01T17:25:00Z,26.2090,-91.4456,10.3,22.7,11111222
Chevron,ioos:station:wmo:42876:1,2019-04-01T17:35:00Z,26.2090,-91.4456,10.3,22.7,11111222
Chevron,ioos:station:wmo:42876:1,2019-04-01T17:45:00Z,26.2090,-91.4456,10.5,22.7,11111222
Chevron,ioos:station:wmo:42876:1,2019-04-01T17:55:00Z,26.2090,-91.4456,10.4,22.7,11111222
Chevron,ioos:station:wmo:42876:1,2019-04-01T18:05:00Z,26.2090,-91.4456,10.4,22.7,11111222
Chevron,ioos:station:wmo:42876:1,2019-04-01T18:16:00Z,26.2090,-91.4456,10.6,22.7,11111222
Chevron,ioos:station:wmo:42876:1,2019-04-01T18:26:00Z,26.2090,-91.4456,10.4,22.7,11111222
Chevron,ioos:station:wmo:42876:1,2019-04-01T18:36:00Z,26.2090,-91.4456,10.3,22.8,11111222
Chevron,ioos:station:wmo:42876:1,2019-04-01T18:46:00Z,26.2090,-91.4456,10.6,22.8,11111222
Chevron,ioos:station:wmo:42876:1,2019-04-01T18:56:00Z,26.2090,-91.4456,10.3,22.8,11111222
Chevron,ioos:station:wmo:42876:1,2019-04-01T19:06:00Z,26.2090,-91.4456,10.3,22.8,11111222
Chevron,ioos:station:wmo:42876:1,2019-04-01T19:16:00Z,26.2090,-91.4456,10.3,22.8,11111222
Chevron,ioos:station:wmo:42876:1,2019-04-01T19:26:00Z,26.2090,-91.4456,10.4,22.7,11111222
Chevron,ioos:station:wmo:42876:1,2019-04-01T19:36:00Z,26.2090,-91.4456,10.6,22.7,11111222
Chevron,ioos:station:wmo:42876:1,2019-04-01T19:46:00Z,26.2090,-91.4456,10.3,22.7,11111222
Chevron,ioos:station:wmo:42876:1,2019-04-01T19:56:00Z,26.2090,-91.4456,10.3,22.7,11111222
Chevron,ioos:station:wmo:42876:1,2019-04-01T20:06:00Z,26.2090,-91.4456,10.3,22.7,11111222
Chevron,ioos:station:wmo:42876:1,2019-04-01T20:16:00Z,26.2090,-91.4456,10.5,22.7,11111222
Chevron,ioos:station:wmo:42876:1,2019-04-01T20:26:00Z,26.2090,-91.4456,10.4,22.7,11111222
Chevron,ioos:station:wmo:42876:1,2019-04-01T20:36:00Z,26.2090,-91.4456,10.3,22.7,11111222
Chevron,ioos:station:wmo:42876:1,2019-04-01T20:46:00Z,26.2090,-91.4456,10.1,22.7,11111222
Chevron,ioos:station:wmo:42876:1,2019-04-01T20:56:00Z,26.2090,-91.4456,10.3,22.7,11111222
Chevron,ioos:station:wmo:42876:1,2019-04-01T21:06:00Z,26.2090,-91.4456,10.1,22.7,11111222
Chevron,ioos:station:wmo:42876:1,2019-04-01T21:16:00Z,26.2090,-91.4456,10.3,22.7,11111222
Chevron,ioos:station:wmo:42876:1,2019-04-01T21:26:00Z,26.2090,-91.4456,10.4,22.7,11111222
Chevron,ioos:station:wmo:42876:1,2019-04-01T21:36:00Z,26.2090,-91.4456,10.4,22.7,11111222
Chevron,ioos:station:wmo:42876:1,2019-04-01T21:46:00Z,26.2090,-91.4456,10.3,22.7,11111222
Chevron,ioos:station:wmo:42876:1,2019-04-01T21:56:00Z,26.2090,-91.4456,10.5,22.7,11111222
Chevron,ioos:station:wmo:42876:1,2019-04-01T22:06:00Z,26.2090,-91.4456,10.4,22.7,11111222
Chevron,ioos:station:wmo:42876:1,2019-04-01T22:16:00Z,26.2090,-91.4456,10.4,22.7,11111222
Chevron,ioos:station:wmo:42876:1,2019-04-01T22:26:00Z,26.2090,-91.4456,10.4,22.7,11111222
Chevron,ioos:station:wmo:42876:1,2019-04-01T22:36:00Z,26.2090,-91.4456,10.1,22.7,11111222
Chevron,ioos:station:wmo:42876:1,2019-04-01T22:46:00Z,26.2090,-91.4456,10.2,22.7,11111222
Chevron,ioos:station:wmo:42876:1,2019-04-01T22:56:00Z,26.2090,-91.4456,10.3,22.7,11111222
Chevron,ioos:station:wmo:42876:1,2019-04-01T23:06:00Z,26.2090,-91.4456,10.2,22.7,11111222
Chevron,ioos:station:wmo:42876:1,2019-04-01T23:16:00Z,26.2090,-91.4456,10.4,22.7,11111222
Chevron,ioos:station:wmo:42876:1,2019-04-01T23:26:00Z,26.2090,-91.4456,10.4,22.7,11111222
Chevron,ioos:station:wmo:42876:1,2019-04-01T23:36:00Z,26.2090,-91.4456,10.4,22.7,11111222
Chevron,ioos:station:wmo:42876:1,2019-04-01T23:46:00Z,26.2090,-91.4456,10.0,22.7,11111222
Chevron,ioos:station:wmo:42876:1,2019-04-01T23:56:00Z,26.2090,-91.4456,10.3,22.7,11111222
Chevron,ioos:station:wmo:42876:1,2019-04-02T00:06:00Z,26.2090,-91.4456,10.3,22.7,11111222
Chevron,ioos:station:wmo:42876:1,2019-04-02T00:16:00Z,26.2090,-91.4456,10.4,22.7,11111222
Chevron,ioos:station:wmo:42876:1,2019-04-02T00:26:00Z,26.2090,-91.4456,10.3,22.8,11111222
Chevron,ioos:station:wmo:42876:1,2019-04-02T00:36:00Z,26.2090,-91.4456,10.2,22.8,11111222
Chevron,ioos:station:wmo:42876:1,2019-04-02T00:46:00Z,26.2090,-91.4456,10.3,22.8,11111222
Chevron,ioos:station:wmo:42876:1,2019-04-02T00:56:00Z,26.2090,-91.4456,10.4,22.8,11111222
Chevron,ioos:station:wmo:42876:1,2019-04-02T01:06:00Z,26.2090,-91.4456,10.4,22.8,11111222
Chevron,ioos:station:wmo:42876:1,2019-04-02T01:16:00Z,26.2090,-91.4456,10.1,22.8,11111222
Chevron,ioos:station:wmo:42876:1,2019-04-02T01:26:00Z,26.2090,-91.4456,10.6,22.8,11111222
Chevron,ioos:station:wmo:42876:1,2019-04-02T01:36:00Z,26.2090,-91.4456,10.6,22.8,11111222
Chevron,ioos:station:wmo:42876:1,2019-04-02T01:46:00Z,26.2090,-91.4456,10.3,22.8,11111222
Chevron,ioos:station:wmo:42876:1,2019-04-02T01:56:00Z,26.2090,-91.4456,10.5,22.8,11111222
Chevron,ioos:station:wmo:42876:1,2019-04-02T02:06:00Z,26.2090,-91.4456,10.6,22.8,11111222
Chevron,ioos:station:wmo:42876:1,2019-04-02T02:16:00Z,26.2090,-91.4456,10.6,22.8,11111222
Chevron,ioos:station:wmo:42876:1,2019-04-02T02:26:00Z,26.2090,-91.4456,10.5,22.8,11111222
Chevron,ioos:station:wmo:42876:1,2019-04-02T02:36:00Z,26.2090,-91.4456,10.7,22.8,11111222
Chevron,ioos:station:wmo:42876:1,2019-04-02T02:46:00Z,26.2090,-91.4456,10.4,22.7,11111222
Chevron,ioos:station:wmo:42876:1,2019-04-02T02:56:00Z,26.2090,-91.4456,10.1,22.7,11111222
Chevron,ioos:station:wmo:42876:1,2019-04-02T03:06:00Z,26.2090,-91.4456,10.4,22.7,11111222
Chevron,ioos:station:wmo:42876:1,2019-04-02T03:16:00Z,26.2090,-91.4456,10.3,22.7,11111222
Chevron,ioos:station:wmo:42876:1,2019-04-02T03:26:00Z,26.2090,-91.4456,10.6,22.7,11111222
Chevron,ioos:station:wmo:42876:1,2019-04-02T03:36:00Z,26.2090,-91.4456,10.4,22.7,11111222
Chevron,ioos:station:wmo:42876:1,2019-04-02T03:46:00Z,26.2090,-91.4456,10.2,22.7,11111222
Chevron,ioos:station:wmo:42876:1,2019-04-02T03:56:00Z,26.2090,-91.4456,10.2,22.7,11111222
Chevron,ioos:station:wmo:42876:1,2019-04-02T04:06:00Z,26.2090,-91.4456,10.2,22.7,11111222
Chevron,ioos:station:wmo:42876:1,2019-04-02T04:16:00Z,26.2090,-91.4456,10.3,22.7,11111222
Chevron,ioos:station:wmo:42876:1,2019-04-02T04:26:00Z,26.2090,-91.4456,10.3,22.6,11111222
Chevron,ioos:station:wmo:42876:1,2019-04-02T04:36:00Z,26.2090,-91.4456,10.3,22.6,11111222
Chevron,ioos:station:wmo:42876:1,2019-04-02T04:46:00Z,26.2090,-91.4456,10.3,22.7,11111222
Chevron,ioos:station:wmo:42876:1,2019-04-02T04:56:00Z,26.2090,-91.4456,10.4,22.6,11111222
Chevron,ioos:station:wmo:42876:1,2019-04-02T05:06:00Z,26.2090,-91.4456,10.2,22.7,11111222
Chevron,ioos:station:wmo:42876:1,2019-04-02T05:16:00Z,26.2090,-91.4456,10.5,22.7,11111222
Chevron,ioos:station:wmo:42876:1,2019-04-02T05:26:00Z,26.2090,-91.4456,10.3,22.7,11111222
Chevron,ioos:station:wmo:42876:1,2019-04-02T05:36:00Z,26.2090,-91.4456,10.6,22.7,11111222
Chevron,ioos:station:wmo:42876:1,2019-04-02T05:46:00Z,26.2090,-91.4456,10.6,22.7,11111222
Chevron,ioos:station:wmo:42876:1,2019-04-02T05:56:00Z,26.2090,-91.4456,10.5,22.7,11111222
Chevron,ioos:station:wmo:42876:1,2019-04-02T06:06:00Z,26.2090,-91.4456,10.4,22.7,11111222
Chevron,ioos:station:wmo:42876:1,2019-04-02T06:16:00Z,26.2090,-91.4456,10.6,22.7,11111222
Chevron,ioos:station:wmo:42876:1,2019-04-02T06:26:00Z,26.2090,-91.4456,10.5,22.7,11111222
Chevron,ioos:station:wmo:42876:1,2019-04-02T06:36:00Z,26.2090,-91.4456,10.5,22.7,11111222
Chevron,ioos:station:wmo:42876:1,2019-04-02T06:46:00Z,26.2090,-91.4456,10.3,22.7,11111222
Chevron,ioos:station:wmo:42876:1,2019-04-02T06:56:00Z,26.2090,-91.4456,10.4,22.7,11111222
Chevron,ioos:station:wmo:42876:1,2019-04-02T07:06:00Z,26.2090,-91.4456,10.4,22.7,11111222
Chevron,ioos:station:wmo:42876:1,2019-04-02T07:16:00Z,26.2090,-91.4456,10.5,22.7,11111222
Chevron,ioos:station:wmo:42876:1,2019-04-02T07:26:00Z,26.2090,-91.4456,10.4,22.7,11111222
Chevron,ioos:station:wmo:42876:1,2019-04-02T07:36:00Z,26.2090,-91.4456,10.5,22.7,11111222
Chevron,ioos:station:wmo:42876:1,2019-04-02T07:46:00Z,26.2090,-91.4456,10.4,22.7,11111222
Chevron,ioos:station:wmo:42876:1,2019-04-02T07:56:00Z,26.2090,-91.4456,10.3,22.7,11111222
Chevron,ioos:station:wmo:42876:1,2019-04-02T08:06:00Z,26.2090,-91.4456,10.4,22.7,11111222
Chevron,ioos:station:wmo:42876:1,2019-04-02T08:16:00Z,26.2090,-91.4456,10.4,22.7,11111222
Chevron,ioos:station:wmo:42876:1,2019-04-02T08:26:00Z,26.2090,-91.4456,10.3,22.7,11111222
Chevron,ioos:station:wmo:42876:1,2019-04-02T08:36:00Z,26.2090,-91.4456,10.1,22.7,11111222
Chevron,ioos:station:wmo:42876:1,2019-04-02T08:46:00Z,26.2090,-91.4456,10.2,22.7,11111222
Chevron,ioos:station:wmo:42876:1,2019-04-02T08:56:00Z,26.2090,-91.4456,10.2,22.7,11111222
Chevron,ioos:station:wmo:42876:1,2019-04-02T09:06:00Z,26.2090,-91.4456,10.5,22.7,11111222
Chevron,ioos:station:wmo:42876:1,2019-04-02T09:16:00Z,26.2090,-91.4456,10.1,22.7,11111222
Chevron,ioos:station:wmo:42876:1,2019-04-02T09:26:00Z,26.2090,-91.4456,10.1,22.7,11111222
Chevron,ioos:station:wmo:42876:1,2019-04-02T09:36:00Z,26.2090,-91.4456,10.2,22.8,11111222
Chevron,ioos:station:wmo:42876:1,2019-04-02T09:46:00Z,26.2090,-91.4456,10.2,22.8,11111222
Chevron,ioos:station:wmo:42876:1,2019-04-02T09:56:00Z,26.2090,-91.4456,10.5,22.8,11111222
Chevron,ioos:station:wmo:42876:1,2019-04-02T10:06:00Z,26.2090,-91.4456,10.5,22.8,11111222
Chevron,ioos:station:wmo:42876:1,2019-04-02T10:16:00Z,26.2090,-91.4456,10.4,22.8,11111222
Chevron,ioos:station:wmo:42876:1,2019-04-02T10:26:00Z,26.2090,-91.4456,10.6,22.8,11111222
Chevron,ioos:station:wmo:42876:1,2019-04-02T10:36:00Z,26.2090,-91.4456,10.2,22.8,11111222
Chevron,ioos:station:wmo:42876:1,2019-04-02T10:46:00Z,26.2090,-91.4456,10.3,22.9,11111222
Chevron,ioos:station:wmo:42876:1,2019-04-02T10:56:00Z,26.2090,-91.4456,10.4,22.9,11111222
Chevron,ioos:station:wmo:42876:1,2019-04-02T11:06:00Z,26.2090,-91.4456,10.2,22.9,11111222
Chevron,ioos:station:wmo:42876:1,2019-04-02T11:16:00Z,26.2090,-91.4456,10.3,22.9,11111222
Chevron,ioos:station:wmo:42876:1,2019-04-02T11:27:00Z,26.2090,-91.4456,10.3,22.9,11111222
Chevron,ioos:station:wmo:42876:1,2019-04-02T11:37:00Z,26.2090,-91.4456,10.3,22.9,11111222
Chevron,ioos:station:wmo:42876:1,2019-04-02T11:47:00Z,26.2090,-91.4456,10.3,22.9,11111222
Chevron,ioos:station:wmo:42876:1,2019-04-02T11:57:00Z,26.2090,-91.4456,10.3,22.9,11111222
Chevron,ioos:station:wmo:42876:1,2019-04-02T12:07:00Z,26.2090,-91.4456,10.5,22.9,11111222
Chevron,ioos:station:wmo:42876:1,2019-04-02T12:17:00Z,26.2090,-91.4456,10.1,22.9,11111222
Chevron,ioos:station:wmo:42876:1,2019-04-02T12:27:00Z,26.2090,-91.4456,10.6,22.9,11111222
Chevron,ioos:station:wmo:42876:1,2019-04-02T12:37:00Z,26.2090,-91.4456,10.6,23.0,11111222
Chevron,ioos:station:wmo:42876:1,2019-04-02T12:47:00Z,26.2090,-91.4456,10.5,23.0,11111222
Chevron,ioos:station:wmo:42876:1,2019-04-02T12:57:00Z,26.2090,-91.4456,10.3,23.0,11111222
Chevron,ioos:station:wmo:42876:1,2019-04-02T13:07:00Z,26.2090,-91.4456,10.0,23.0,11111222
Chevron,ioos:station:wmo:42876:1,2019-04-02T13:17:00Z,26.2090,-91.4456,10.4,23.0,11111222
Chevron,ioos:station:wmo:42876:1,2019-04-02T13:27:00Z,26.2090,-91.4456,10.3,23.0,11111222
Chevron,ioos:station:wmo:42876:1,2019-04-02T13:37:00Z,26.2090,-91.4456,10.4,23.0,11111222
Chevron,ioos:station:wmo:42876:1,2019-04-02T13:47:00Z,26.2090,-91.4456,10.2,23.0,11111222
Chevron,ioos:station:wmo:42876:1,2019-04-02T13:57:00Z,26.2090,-91.4456,10.4,23.0,11111222
Chevron,ioos:station:wmo:42876:1,2019-04-02T14:07:00Z,26.2090,-91.4456,10.2,23.0,11111222
Chevron,ioos:station:wmo:42876:1,2019-04-02T14:17:00Z,26.2090,-91.4456,10.5,23.0,11111222
Chevron,ioos:station:wmo:42876:1,2019-04-02T14:27:00Z,26.2090,-91.4456,10.4,23.1,11111222
Chevron,ioos:station:wmo:42876:1,2019-04-02T14:37:00Z,26.2090,-91.4456,10.1,23.1,11111222
Chevron,ioos:station:wmo:42876:1,2019-04-02T14:47:00Z,26.2090,-91.4456,10.1,23.1,11111222
Chevron,ioos:station:wmo:42876:1,2019-04-02T14:57:00Z,26.2090,-91.4456,10.3,23.1,11111222
Chevron,ioos:station:wmo:42876:1,2019-04-02T15:37:00Z,26.2090,-91.4456,10.6,23.1,11111222
Chevron,ioos:station:wmo:42876:1,2019-04-02T15:47:00Z,26.2090,-91.4456,10.6,23.1,11111222
Chevron,ioos:station:wmo:42876:1,2019-04-02T15:57:00Z,26.2090,-91.4456,10.6,23.1,11111222
Chevron,ioos:station:wmo:42876:1,2019-04-02T16:07:00Z,26.2090,-91.4456,10.6,23.1,11111222
Chevron,ioos:station:wmo:42876:1,2019-04-02T16:17:00Z,26.2090,-91.4456,10.6,23.1,11111222
Chevron,ioos:station:wmo:42876:1,2019-04-02T16:27:00Z,26.2090,-91.4456,10.4,23.2,11111222
Chevron,ioos:station:wmo:42876:1,2019-04-02T16:37:00Z,26.2090,-91.4456,10.4,23.2,11111222
Chevron,ioos:station:wmo:42876:1,2019-04-02T16:47:00Z,26.2090,-91.4456,10.5,23.2,11111222
Chevron,ioos:station:wmo:42876:1,2019-04-02T16:57:00Z,26.2090,-91.4456,10.8,23.2,11111222
Chevron,ioos:station:wmo:42876:1,2019-04-02T17:07:00Z,26.2090,-91.4456,10.5,23.2,11111222
Chevron,ioos:station:wmo:42876:1,2019-04-02T17:17:00Z,26.2090,-91.4456,10.6,23.2,11111222
Chevron,ioos:station:wmo:42876:1,2019-04-02T17:27:00Z,26.2090,-91.4456,10.4,23.2,11111222
Chevron,ioos:station:wmo:42876:1,2019-04-02T17:37:00Z,26.2090,-91.4456,10.5,23.2,11111222
Chevron,ioos:station:wmo:42876:1,2019-04-02T17:47:00Z,26.2090,-91.4456,10.1,23.3,11111222
Chevron,ioos:station:wmo:42876:1,2019-04-02T17:57:00Z,26.2090,-91.4456,10.6,23.3,11111222
Chevron,ioos:station:wmo:42876:1,2019-04-02T18:07:00Z,26.2090,-91.4456,10.4,23.3,11111222
Chevron,ioos:station:wmo:42876:1,2019-04-02T18:17:00Z,26.2090,-91.4456,10.4,23.3,11111222
Chevron,ioos:station:wmo:42876:1,2019-04-02T18:27:00Z,26.2090,-91.4456,10.6,23.3,11111222
Chevron,ioos:station:wmo:42876:1,2019-04-02T18:37:00Z,26.2090,-91.4456,10.5,23.3,11111222
Chevron,ioos:station:wmo:42876:1,2019-04-02T18:47:00Z,26.2090,-91.4456,10.7,23.3,11111222
Chevron,ioos:station:wmo:42876:1,2019-04-02T18:57:00Z,26.2090,-91.4456,10.5,23.3,11111222
Chevron,ioos:station:wmo:42876:1,2019-04-02T19:07:00Z,26.2090,-91.4456,10.6,23.3,11111222
Chevron,ioos:station:wmo:42876:1,2019-04-02T19:17:00Z,26.2090,-91.4456,10.6,23.3,11111222
Chevron,ioos:station:wmo:42876:1,2019-04-02T19:27:00Z,26.2090,-91.4456,10.6,23.3,11111222
Chevron,ioos:station:wmo:42876:1,2019-04-02T19:37:00Z,26.2090,-91.4456,10.4,23.4,11111222
Chevron,ioos:station:wmo:42876:1,2019-04-02T19:47:00Z,26.2090,-91.4456,10.7,23.4,11111222
Chevron,ioos:station:wmo:42876:1,2019-04-02T19:57:00Z,26.2090,-91.4456,10.5,23.4,11111222
Chevron,ioos:station:wmo:42876:1,2019-04-02T20:07:00Z,26.2090,-91.4456,10.8,23.4,11111222